| time (UTC) | temp F | wind direction | speed knots | gust knots | rain 1hr in | rain 24hr in | rain mn in | humidity % | barometer mb |
| 20260503033037 | 0 | 131 | 0.0 | 0.0 | 0.00 | 0.00 | 0.00 | 91 | 1003.6 |
| 20260503032537 | 0 | 131 | 0.0 | 0.0 | 0.00 | 0.00 | 0.00 | 91 | 1003.5 |
| 20260503032037 | 0 | 131 | 0.0 | 0.0 | 0.00 | 0.00 | 0.00 | 91 | 1003.4 |
| 20260503031536 | 0 | 131 | 0.0 | 0.0 | 0.00 | 0.00 | 0.00 | 91 | 1003.4 |
| 20260503031036 | 0 | 131 | 0.0 | 0.0 | 0.00 | 0.00 | 0.00 | 90 | 1003.3 |
| 20260503030536 | 0 | 131 | 0.0 | 0.0 | 0.00 | 0.00 | 0.00 | 90 | 1003.1 |
| 20260503030035 | 0 | 131 | 0.0 | 0.0 | 0.00 | 0.00 | 0.00 | 90 | 1003.2 |
| 20260503025535 | 0 | 131 | 0.0 | 0.0 | 0.00 | 0.00 | 0.00 | 89 | 1003.2 |
| 20260503025035 | 0 | 131 | 0.0 | 0.0 | 0.00 | 0.00 | 0.00 | 89 | 1003.0 |
| 20260503024534 | 0 | 131 | 0.0 | 0.0 | 0.00 | 0.00 | 0.00 | 89 | 1003.0 |
| 20260503024034 | 0 | 131 | 0.0 | 0.0 | 0.00 | 0.00 | 0.00 | 89 | 1003.0 |
| 20260503023534 | 0 | 131 | 0.0 | 0.0 | 0.00 | 0.00 | 0.00 | 88 | 1003.0 |
| 20260503023034 | 0 | 131 | 0.0 | 0.0 | 0.00 | 0.00 | 0.00 | 87 | 1003.1 |
| 20260503022533 | 0 | 131 | 0.0 | 0.0 | 0.00 | 0.00 | 0.00 | 87 | 1003.0 |
| 20260503022033 | 0 | 131 | 0.0 | 0.0 | 0.00 | 0.00 | 0.00 | 87 | 1002.7 |
| 20260503021533 | 0 | 131 | 0.0 | 0.0 | 0.00 | 0.00 | 0.00 | 86 | 1003.0 |
| 20260503021032 | 0 | 131 | 0.0 | 0.0 | 0.00 | 0.00 | 0.00 | 86 | 1002.8 |
| 20260503020532 | 0 | 131 | 0.0 | 0.0 | 0.00 | 0.00 | 0.00 | 85 | 1003.0 |
| 20260503020032 | 0 | 131 | 0.0 | 0.0 | 0.00 | 0.00 | 0.00 | 85 | 1002.8 |
| 20260503015531 | 0 | 131 | 0.0 | 0.0 | 0.00 | 0.00 | 0.00 | 84 | 1002.9 |
| 20260503015031 | 0 | 131 | 0.0 | 0.0 | 0.00 | 0.00 | 0.00 | 84 | 1002.8 |
| 20260503014530 | 0 | 131 | 0.0 | 0.0 | 0.00 | 0.00 | 0.00 | 83 | 1002.5 |
| 20260503014030 | 0 | 131 | 0.0 | 0.0 | 0.00 | 0.00 | 0.00 | 83 | 1002.4 |
| 20260503013530 | 0 | 131 | 0.0 | 0.0 | 0.00 | 0.00 | 0.00 | 82 | 1002.5 |
| 20260503013029 | 0 | 131 | 0.0 | 0.0 | 0.00 | 0.00 | 0.00 | 82 | 1002.5 |
| 20260503012529 | 0 | 131 | 0.0 | 0.0 | 0.00 | 0.00 | 0.00 | 81 | 1002.5 |
| 20260503012029 | 0 | 131 | 0.0 | 0.0 | 0.00 | 0.00 | 0.00 | 81 | 1002.4 |
| 20260503011528 | 0 | 131 | 0.0 | 0.0 | 0.00 | 0.00 | 0.00 | 80 | 1002.3 |
| 20260503011028 | 0 | 131 | 0.0 | 0.0 | 0.00 | 0.00 | 0.00 | 79 | 1002.3 |
| 20260503010528 | 0 | 131 | 0.0 | 0.0 | 0.00 | 0.00 | 0.00 | 78 | 1002.1 |
| 20260503010027 | 0 | 131 | 0.0 | 0.0 | 0.00 | 0.00 | 0.00 | 77 | 1002.0 |
| 20260503005527 | 0 | 131 | 0.0 | 0.0 | 0.00 | 0.00 | 0.00 | 76 | 1002.0 |
| 20260503005027 | 0 | 131 | 0.0 | 0.0 | 0.00 | 0.00 | 0.00 | 76 | 1002.1 |
| 20260503004526 | 0 | 130 | 0.0 | 0.0 | 0.00 | 0.00 | 0.00 | 76 | 1002.1 |
| 20260503004026 | 0 | 130 | 0.0 | 0.0 | 0.00 | 0.00 | 0.00 | 75 | 1001.9 |
| 20260503003526 | 0 | 130 | 0.0 | 0.0 | 0.00 | 0.00 | 0.00 | 74 | 1001.7 |
| 20260503003025 | 0 | 130 | 0.0 | 0.0 | 0.00 | 0.00 | 0.00 | 73 | 1001.7 |
| 20260503002525 | 0 | 130 | 0.0 | 0.0 | 0.00 | 0.00 | 0.00 | 73 | 1001.9 |
| 20260503002025 | 0 | 130 | 0.0 | 0.0 | 0.00 | 0.00 | 0.00 | 72 | 1001.6 |
| 20260503001524 | 0 | 130 | 0.0 | 0.0 | 0.00 | 0.00 | 0.00 | 71 | 1001.4 |
| 20260503001024 | 0 | 130 | 0.0 | 0.0 | 0.00 | 0.00 | 0.00 | 70 | 1001.3 |
| 20260503000524 | 0 | 130 | 0.0 | 0.0 | 0.00 | 0.00 | 0.00 | 69 | 1001.3 |
| 20260503000023 | 0 | 130 | 0.0 | 0.0 | 0.00 | 0.00 | 0.00 | 69 | 1001.3 |
| 20260502235523 | 0 | 130 | 0.0 | 0.0 | 0.00 | 0.00 | 0.00 | 67 | 1000.9 |
| 20260502235023 | 0 | 130 | 0.0 | 0.0 | 0.00 | 0.00 | 0.00 | 66 | 1001.0 |
| 20260502234523 | 0 | 130 | 0.0 | 0.0 | 0.00 | 0.00 | 0.00 | 65 | 1001.0 |
| 20260502234017 | 0 | 130 | 0.0 | 0.0 | 0.00 | 0.00 | 0.00 | 64 | 1000.9 |
| 20260502233517 | 0 | 130 | 0.0 | 0.0 | 0.00 | 0.00 | 0.00 | 63 | 1000.7 |
| 20260502233017 | 0 | 130 | 0.0 | 0.0 | 0.00 | 0.00 | 0.00 | 61 | 1000.7 |
| 20260502232516 | 0 | 130 | 0.0 | 0.0 | 0.00 | 0.00 | 0.00 | 59 | 1000.6 |
| 20260502232016 | 0 | 130 | 0.0 | 0.0 | 0.00 | 0.00 | 0.00 | 59 | 1000.8 |
| 20260502231516 | 0 | 140 | 0.0 | 0.0 | 0.00 | 0.00 | 0.00 | 60 | 1000.7 |
| 20260502231015 | 0 | 142 | 0.0 | 0.0 | 0.00 | 0.00 | 0.00 | 62 | 1000.6 |
| 20260502230515 | 0 | 101 | 0.0 | 0.0 | 0.00 | 0.00 | 0.00 | 60 | 1000.8 |
| 20260502230015 | 0 | 113 | 0.9 | 0.9 | 0.00 | 0.00 | 0.00 | 61 | 1000.9 |
| 20260502225515 | 0 | 185 | 0.0 | 0.0 | 0.00 | 0.00 | 0.00 | 62 | 1000.6 |
| 20260502225014 | 0 | 89 | 0.0 | 0.9 | 0.00 | 0.00 | 0.00 | 64 | 1000.5 |
| 20260502224514 | 0 | 92 | 0.0 | 0.0 | 0.00 | 0.00 | 0.00 | 61 | 1000.5 |
| 20260502224014 | 0 | 92 | 0.0 | 0.0 | 0.00 | 0.00 | 0.00 | 63 | 1000.5 |
| 20260502223513 | 0 | 92 | 0.0 | 0.0 | 0.00 | 0.00 | 0.00 | 62 | 1000.5 |
| 20260502223013 | 0 | 92 | 0.0 | 0.0 | 0.00 | 0.00 | 0.00 | 60 | 1000.7 |
| 20260502222513 | 0 | 94 | 0.0 | 0.0 | 0.00 | 0.00 | 0.00 | 60 | 1000.5 |
| 20260502222012 | 0 | 94 | 0.0 | 0.0 | 0.00 | 0.00 | 0.00 | 61 | 1000.5 |
| 20260502221512 | 0 | 94 | 0.0 | 0.9 | 0.00 | 0.00 | 0.00 | 61 | 1000.7 |
| 20260502221011 | 0 | 94 | 0.0 | 0.0 | 0.00 | 0.00 | 0.00 | 60 | 1000.5 |
| 20260502220511 | 0 | 170 | 0.0 | 0.0 | 0.00 | 0.00 | 0.00 | 60 | 1000.7 |
| 20260502220011 | 0 | 189 | 0.0 | 0.0 | 0.00 | 0.00 | 0.00 | 60 | 1000.3 |
| 20260502215510 | 0 | 177 | 0.0 | 0.0 | 0.00 | 0.00 | 0.00 | 60 | 1000.5 |
| 20260502215010 | 0 | 110 | 0.0 | 0.0 | 0.00 | 0.00 | 0.00 | 59 | 1000.4 |
| 20260502214510 | 0 | 115 | 0.0 | 0.9 | 0.00 | 0.00 | 0.00 | 60 | 1000.3 |
| 20260502214009 | 0 | 353 | 0.0 | 0.0 | 0.00 | 0.00 | 0.00 | 60 | 1000.3 |
| 20260502213509 | 0 | 345 | 0.9 | 0.9 | 0.00 | 0.00 | 0.00 | 61 | 1000.2 |
| 20260502213009 | 0 | 321 | 0.0 | 0.9 | 0.00 | 0.00 | 0.00 | 62 | 1000.3 |
| 20260502212508 | 0 | 203 | 0.0 | 0.0 | 0.00 | 0.00 | 0.00 | 62 | 1000.2 |
| 20260502212008 | 0 | 160 | 0.0 | 0.0 | 0.00 | 0.00 | 0.00 | 62 | 1000.3 |
| 20260502211508 | 0 | 23 | 0.0 | 0.9 | 0.00 | 0.00 | 0.00 | 63 | 1000.3 |
| 20260502211008 | 0 | 109 | 0.0 | 0.0 | 0.00 | 0.00 | 0.00 | 65 | 1000.3 |
| 20260502210507 | 0 | 127 | 0.0 | 0.0 | 0.00 | 0.00 | 0.00 | 66 | 1000.3 |
| 20260502210007 | 0 | 104 | 0.0 | 0.0 | 0.00 | 0.00 | 0.00 | 67 | 1000.3 |
| 20260502205507 | 0 | 103 | 0.0 | 0.0 | 0.00 | 0.00 | 0.00 | 68 | 1000.2 |
| 20260502205006 | 0 | 103 | 0.0 | 0.0 | 0.00 | 0.00 | 0.00 | 68 | 1000.3 |
| 20260502204506 | 0 | 103 | 0.0 | 0.9 | 0.00 | 0.00 | 0.00 | 67 | 1000.5 |
| 20260502204006 | 0 | 104 | 0.0 | 0.0 | 0.00 | 0.00 | 0.00 | 69 | 1000.1 |
| 20260502203505 | 0 | 99 | 0.9 | 0.9 | 0.00 | 0.00 | 0.00 | 67 | 1000.3 |
| 20260502203005 | 0 | 9 | 0.0 | 0.0 | 0.00 | 0.00 | 0.00 | 67 | 1000.3 |
| 20260502202500 | 0 | 9 | 0.0 | 0.0 | 0.00 | 0.00 | 0.00 | 65 | 1000.3 |
| 20260502201959 | 0 | 115 | 0.0 | 0.0 | 0.00 | 0.00 | 0.00 | 70 | 1000.4 |
| 20260502201459 | 0 | 132 | 0.0 | 0.0 | 0.00 | 0.00 | 0.00 | 70 | 1000.4 |
| 20260502200959 | 0 | 178 | 0.0 | 0.0 | 0.00 | 0.00 | 0.00 | 68 | 1000.4 |
| 20260502200458 | 0 | 172 | 0.0 | 0.0 | 0.00 | 0.00 | 0.00 | 70 | 1000.3 |
| 20260502195958 | 0 | 194 | 0.9 | 1.7 | 0.00 | 0.00 | 0.00 | 69 | 1000.1 |
| 20260502195458 | 0 | 153 | 0.0 | 0.0 | 0.00 | 0.00 | 0.00 | 70 | 1000.3 |
| 20260502194957 | 0 | 153 | 0.0 | 0.0 | 0.00 | 0.00 | 0.00 | 70 | 1000.6 |
| 20260502194457 | 0 | 126 | 0.0 | 0.0 | 0.00 | 0.00 | 0.00 | 70 | 1000.5 |
| 20260502193957 | 0 | 131 | 0.0 | 0.0 | 0.00 | 0.00 | 0.00 | 70 | 1000.5 |
| 20260502193457 | 0 | 196 | 0.0 | 0.0 | 0.00 | 0.00 | 0.00 | 67 | 1000.4 |
| 20260502192956 | 0 | 147 | 0.0 | 0.0 | 0.00 | 0.00 | 0.00 | 68 | 1000.5 |
| 20260502192456 | 0 | 117 | 0.0 | 0.0 | 0.00 | 0.00 | 0.00 | 67 | 1000.8 |
| 20260502191955 | 0 | 191 | 0.9 | 0.9 | 0.00 | 0.00 | 0.00 | 68 | 1000.7 |
| 20260502191455 | 0 | 203 | 0.0 | 0.0 | 0.00 | 0.00 | 0.00 | 68 | 1001.0 |
| 20260502190955 | 0 | 80 | 0.0 | 0.0 | 0.00 | 0.00 | 0.00 | 70 | 1000.9 |
| 20260502190454 | 0 | 72 | 1.7 | 1.7 | 0.00 | 0.00 | 0.00 | 71 | 1000.7 |
| 20260502185954 | 0 | 97 | 0.0 | 0.9 | 0.00 | 0.00 | 0.00 | 71 | 1000.8 |
| 20260502185453 | 0 | 101 | 0.0 | 0.0 | 0.00 | 0.00 | 0.00 | 71 | 1000.9 |
| 20260502184953 | 0 | 101 | 0.0 | 0.0 | 0.00 | 0.00 | 0.00 | 73 | 1000.9 |
| 20260502184453 | 0 | 102 | 0.0 | 0.0 | 0.00 | 0.00 | 0.00 | 72 | 1000.9 |
| 20260502183952 | 0 | 108 | 0.0 | 0.0 | 0.00 | 0.00 | 0.00 | 71 | 1001.0 |
| 20260502183452 | 0 | 142 | 0.0 | 0.0 | 0.00 | 0.00 | 0.00 | 72 | 1001.1 |
| 20260502182952 | 0 | 154 | 0.0 | 0.0 | 0.00 | 0.00 | 0.00 | 71 | 1001.1 |
| 20260502182451 | 0 | 112 | 0.9 | 0.9 | 0.00 | 0.00 | 0.00 | 73 | 1001.1 |
| 20260502181951 | 0 | 121 | 0.0 | 0.0 | 0.00 | 0.00 | 0.00 | 72 | 1001.0 |
| 20260502181450 | 0 | 106 | 0.0 | 0.0 | 0.00 | 0.00 | 0.00 | 73 | 1001.4 |
| 20260502180949 | 0 | 82 | 0.0 | 0.9 | 0.00 | 0.00 | 0.00 | 75 | 1001.3 |
| 20260502170444 | 0 | 103 | 0.9 | 0.9 | 0.00 | 0.00 | 0.00 | 74 | 1001.7 |
| 20260502163943 | 0 | 172 | 0.0 | 0.9 | 0.00 | 0.00 | 0.00 | 76 | 1001.9 |
| 20260502163442 | 0 | 118 | 0.0 | 0.0 | 0.00 | 0.00 | 0.00 | 77 | 1002.1 |
| 20260502162942 | 0 | 133 | 0.0 | 0.0 | 0.00 | 0.00 | 0.00 | 77 | 1002.3 |
| 20260502162442 | 0 | 99 | 0.0 | 0.9 | 0.00 | 0.00 | 0.00 | 76 | 1002.7 |
| 20260502161942 | 0 | 127 | 0.0 | 0.0 | 0.00 | 0.00 | 0.00 | 78 | 1002.5 |
| 20260502161441 | 0 | 201 | 0.0 | 0.9 | 0.00 | 0.00 | 0.00 | 77 | 1002.6 |
| 20260502160941 | 0 | 112 | 0.9 | 0.9 | 0.00 | 0.00 | 0.00 | 78 | 1002.7 |
| 20260502160440 | 0 | 89 | 1.7 | 1.7 | 0.00 | 0.00 | 0.00 | 77 | 1003.1 |
| 20260502151923 | 0 | 104 | 0.0 | 0.9 | 0.00 | 0.00 | 0.00 | 80 | 1002.3 |
| 20260502151422 | 0 | 123 | 0.0 | 0.0 | 0.00 | 0.00 | 0.00 | 79 | 1002.3 |
| 20260502150922 | 0 | 119 | 0.0 | 0.0 | 0.00 | 0.00 | 0.00 | 80 | 1002.5 |
| 20260502150421 | 0 | 126 | 0.0 | 0.0 | 0.00 | 0.00 | 0.00 | 80 | 1002.4 |
| 20260502130358 | 0 | 127 | 0.0 | 0.0 | 0.00 | 0.00 | 0.00 | 73 | 1001.8 |
| 20260502123354 | 0 | 46 | 0.9 | 0.9 | 0.00 | 0.00 | 0.00 | 73 | 1001.7 |
| 20260502122854 | 0 | 193 | 0.0 | 0.0 | 0.00 | 0.00 | 0.00 | 75 | 1001.9 |
| 20260502122353 | 0 | 184 | 0.0 | 0.0 | 0.00 | 0.00 | 0.00 | 77 | 1001.8 |
| 20260502121853 | 0 | 306 | 0.9 | 0.9 | 0.00 | 0.00 | 0.00 | 77 | 1001.5 |
| 20260502121353 | 0 | 135 | 0.0 | 0.0 | 0.00 | 0.00 | 0.00 | 77 | 1001.3 |
| 20260502120852 | 0 | 186 | 0.0 | 0.0 | 0.00 | 0.00 | 0.00 | 81 | 1001.4 |
| 20260502120352 | 0 | 155 | 0.0 | 0.0 | 0.00 | 0.00 | 0.00 | 80 | 1001.3 |
| 20260502115851 | 0 | 128 | 0.0 | 0.0 | 0.00 | 0.00 | 0.00 | 79 | 1001.4 |
| 20260502115351 | 0 | 172 | 0.0 | 0.0 | 0.00 | 0.00 | 0.00 | 83 | 1001.5 |
| 20260502114851 | 0 | 172 | 0.0 | 0.0 | 0.00 | 0.00 | 0.00 | 84 | 1001.3 |
| 20260502114351 | 0 | 172 | 0.0 | 0.0 | 0.00 | 0.00 | 0.00 | 83 | 1001.5 |
| 20260502113850 | 0 | 172 | 0.0 | 0.0 | 0.00 | 0.00 | 0.00 | 80 | 1001.6 |
| 20260502113349 | 0 | 162 | 0.0 | 0.0 | 0.00 | 0.00 | 0.00 | 79 | 1001.3 |
| 20260502112849 | 0 | 220 | 0.0 | 0.0 | 0.00 | 0.00 | 0.00 | 82 | 1001.3 |
| 20260502112348 | 0 | 207 | 0.0 | 0.0 | 0.00 | 0.00 | 0.00 | 83 | 1001.4 |
| 20260502111848 | 0 | 266 | 0.9 | 1.7 | 0.00 | 0.00 | 0.00 | 84 | 1001.3 |
| 20260502111348 | 0 | 201 | 0.0 | 0.0 | 0.00 | 0.00 | 0.00 | 82 | 1001.6 |
| 20260502110848 | 0 | 188 | 0.0 | 0.0 | 0.00 | 0.00 | 0.00 | 83 | 1001.5 |
| 20260502110347 | 0 | 195 | 0.0 | 0.0 | 0.00 | 0.00 | 0.00 | 84 | 1001.5 |
| 20260502105847 | 0 | 195 | 0.0 | 0.0 | 0.00 | 0.00 | 0.00 | 83 | 1001.7 |
| 20260502105347 | 0 | 132 | 0.0 | 0.0 | 0.00 | 0.00 | 0.00 | 84 | 1001.5 |
| 20260502104846 | 0 | 179 | 0.0 | 0.0 | 0.00 | 0.00 | 0.00 | 84 | 1001.7 |
| 20260502104346 | 0 | 125 | 0.0 | 0.0 | 0.00 | 0.00 | 0.00 | 83 | 1001.7 |
| 20260502103845 | 0 | 337 | 0.9 | 0.9 | 0.00 | 0.00 | 0.00 | 81 | 1001.8 |
| 20260502103345 | 0 | 84 | 1.7 | 1.7 | 0.00 | 0.00 | 0.00 | 82 | 1001.5 |
| 20260502102840 | 0 | 116 | 0.0 | 0.0 | 0.00 | 0.00 | 0.00 | 83 | 1001.5 |
| 20260502102339 | 0 | 157 | 0.0 | 0.0 | 0.00 | 0.00 | 0.00 | 84 | 1001.6 |
| 20260502101839 | 0 | 182 | 0.0 | 0.0 | 0.00 | 0.00 | 0.00 | 84 | 1001.7 |
| 20260502101339 | 0 | 27 | 0.0 | 0.9 | 0.00 | 0.00 | 0.00 | 84 | 1001.7 |
| 20260502100839 | 0 | 124 | 0.0 | 0.0 | 0.00 | 0.00 | 0.00 | 86 | 1001.9 |
| 20260502100338 | 0 | 124 | 0.0 | 0.0 | 0.00 | 0.00 | 0.00 | 85 | 1001.7 |
| 20260502091320 | 0 | 135 | 0.0 | 0.0 | 0.00 | 0.00 | 0.00 | 87 | 1001.9 |
| 20260502090820 | 0 | 135 | 0.0 | 0.0 | 0.00 | 0.00 | 0.00 | 87 | 1001.5 |
| 20260502090320 | 0 | 135 | 0.0 | 0.0 | 0.00 | 0.00 | 0.00 | 86 | 1001.5 |
| 20260502071305 | 0 | 174 | 0.0 | 0.0 | 0.00 | 0.00 | 0.00 | 87 | 1000.8 |
| 20260502070805 | 0 | 174 | 0.0 | 0.0 | 0.00 | 0.00 | 0.00 | 87 | 1000.7 |
| 20260502070305 | 0 | 174 | 0.0 | 0.0 | 0.00 | 0.00 | 0.00 | 87 | 1000.9 |
| 20260502065805 | 0 | 174 | 0.0 | 0.0 | 0.00 | 0.00 | 0.00 | 88 | 1000.8 |
| 20260502065306 | 0 | 174 | 0.0 | 0.0 | 0.00 | 0.00 | 0.00 | 88 | 1000.5 |
| 20260502064804 | 0 | 174 | 0.0 | 0.0 | 0.00 | 0.00 | 0.00 | 88 | 1000.8 |
| 20260502064304 | 0 | 174 | 0.0 | 0.0 | 0.00 | 0.00 | 0.00 | 88 | 1001.0 |
| 20260502063803 | 0 | 174 | 0.0 | 0.0 | 0.00 | 0.00 | 0.00 | 88 | 1000.9 |
| 20260502063303 | 0 | 174 | 0.0 | 0.0 | 0.00 | 0.00 | 0.00 | 88 | 1001.0 |
| 20260502062803 | 0 | 174 | 0.0 | 0.0 | 0.00 | 0.00 | 0.00 | 88 | 1001.0 |
| 20260502062306 | 0 | 174 | 0.0 | 0.0 | 0.00 | 0.00 | 0.00 | 88 | 1000.9 |
| 20260502061802 | 0 | 174 | 0.0 | 0.0 | 0.00 | 0.00 | 0.00 | 88 | 1000.9 |
| 20260502061302 | 0 | 174 | 0.0 | 0.0 | 0.00 | 0.00 | 0.00 | 88 | 1001.1 |
| 20260502060802 | 0 | 174 | 0.0 | 0.0 | 0.00 | 0.00 | 0.00 | 88 | 1001.0 |
| 20260502060301 | 0 | 174 | 0.0 | 0.0 | 0.00 | 0.00 | 0.00 | 88 | 1001.1 |
| 20260502055801 | 0 | 174 | 0.0 | 0.0 | 0.00 | 0.00 | 0.00 | 88 | 1001.0 |
| 20260502055301 | 0 | 175 | 0.0 | 0.0 | 0.00 | 0.00 | 0.00 | 89 | 1000.9 |
| 20260502054800 | 0 | 175 | 0.0 | 0.0 | 0.00 | 0.00 | 0.00 | 88 | 1001.1 |
| 20260502054300 | 0 | 175 | 0.0 | 0.0 | 0.00 | 0.00 | 0.00 | 89 | 1001.1 |
| 20260502053800 | 0 | 175 | 0.0 | 0.0 | 0.00 | 0.00 | 0.00 | 89 | 1001.2 |
| 20260502053300 | 0 | 175 | 0.0 | 0.0 | 0.00 | 0.00 | 0.00 | 89 | 1001.4 |
| 20260502052759 | 0 | 175 | 0.0 | 0.0 | 0.00 | 0.00 | 0.00 | 89 | 1001.2 |
| 20260502052259 | 0 | 175 | 0.0 | 0.0 | 0.00 | 0.00 | 0.00 | 90 | 1001.4 |
| 20260502051759 | 0 | 175 | 0.0 | 0.0 | 0.00 | 0.00 | 0.00 | 89 | 1001.6 |
| 20260502051258 | 0 | 175 | 0.0 | 0.0 | 0.00 | 0.00 | 0.00 | 89 | 1001.6 |
| 20260502050758 | 0 | 175 | 0.0 | 0.0 | 0.00 | 0.00 | 0.00 | 89 | 1001.4 |
| 20260502050258 | 0 | 175 | 0.0 | 0.0 | 0.00 | 0.00 | 0.00 | 89 | 1001.8 |
| 20260502045758 | 0 | 175 | 0.0 | 0.0 | 0.00 | 0.00 | 0.00 | 89 | 1001.6 |
| 20260502045257 | 0 | 175 | 0.0 | 0.0 | 0.00 | 0.00 | 0.00 | 89 | 1001.7 |
| 20260502044757 | 0 | 175 | 0.0 | 0.0 | 0.00 | 0.00 | 0.00 | 89 | 1001.7 |
| 20260502044257 | 0 | 175 | 0.0 | 0.0 | 0.00 | 0.00 | 0.00 | 88 | 1001.6 |
| 20260502043756 | 0 | 175 | 0.0 | 0.0 | 0.00 | 0.00 | 0.00 | 88 | 1001.7 |
| 20260502043256 | 0 | 175 | 0.0 | 0.0 | 0.00 | 0.00 | 0.00 | 88 | 1001.9 |
| 20260502042755 | 0 | 175 | 0.0 | 0.0 | 0.00 | 0.00 | 0.00 | 88 | 1001.6 |
| 20260502042254 | 0 | 175 | 0.0 | 0.0 | 0.00 | 0.00 | 0.00 | 88 | 1001.8 |
| 20260502041754 | 0 | 175 | 0.0 | 0.0 | 0.00 | 0.00 | 0.00 | 88 | 1001.8 |
| 20260502041254 | 0 | 175 | 0.0 | 0.0 | 0.00 | 0.00 | 0.00 | 87 | 1002.0 |
| 20260502040754 | 0 | 175 | 0.0 | 0.0 | 0.00 | 0.00 | 0.00 | 87 | 1001.9 |
| 20260502040253 | 0 | 175 | 0.0 | 0.0 | 0.00 | 0.00 | 0.00 | 87 | 1002.2 |
| 20260502035752 | 0 | 175 | 0.0 | 0.0 | 0.00 | 0.00 | 0.00 | 87 | 1002.1 |
| 20260502035252 | 0 | 175 | 0.0 | 0.0 | 0.00 | 0.00 | 0.00 | 87 | 1002.0 |
| 20260502034751 | 0 | 175 | 0.0 | 0.0 | 0.00 | 0.00 | 0.00 | 87 | 1002.0 |
| 20260502034251 | 0 | 175 | 0.0 | 0.0 | 0.00 | 0.00 | 0.00 | 86 | 1002.2 |
| 20260502033751 | 0 | 175 | 0.0 | 0.0 | 0.00 | 0.00 | 0.00 | 86 | 1002.1 |